Regional Weather Roundup
Issued by NWS

Home | Current Version | Previous Version | Graphics & Text | Print | Product List | Glossary On
Versions: 1 2 3 4 5 6 7 8 9 10 11 12 13 14 15 16 17 18 19 20 21 22 23 24 25 26 27 28 29 30 31 32 33 34 35 36 37 38 39 40 41 42 43 44 45 46 47 48 49 50
000
ASUS45 KSLC 292210
RWRUT

UTAH REGIONAL WEATHER ROUNDUP
NATIONAL WEATHER SERVICE SALT LAKE CITY UT
400 PM MDT SUN MAR 29 2015

UTZ001>011-023>025-292300-

NORTHERN UTAH

CITY           SKY/WX    TMP DP  RH WIND       PRES   REMARKS
BRIGHAM CITY   SUNNY     62   7  11 SW3       30.25F
HILL AFB       NOT AVBL
LOGAN          SUNNY     63  15  15 CALM      30.24F
OGDEN          SUNNY     63  16  16 N6        30.24F
PROVO AIRPORT  SUNNY     63  25  23 VRB5      30.22F
SALT LAKE CITY SUNNY     65  21  18 N13       30.22F
VERNAL         SUNNY     65  13  13 SW10      30.20F
WENDOVER       SUNNY     61  14  16 SE5       30.25F
HEBER CITY     SUNNY     68  18  14 SW12      30.21F
WEST JORDAN    SUNNY     64  28  25 NW12G17   30.23F

$$

UTZ012>022-026-027-292300-

SOUTHERN/CENTRAL UTAH

CITY           SKY/WX    TMP DP  RH WIND       PRES   REMARKS
BLANDING       SUNNY     72  18  12 W13G24    30.25F
BRYCE CANYON   PTSUNNY   57  26  30 SW20G29   30.32S
CEDAR CITY     MOSUNNY   72  18  13 VRB5      30.20F
DELTA          SUNNY     69   7   9 NW5       30.21F
HANKSVILLE     SUNNY     77  10   8 NE7       30.16F
MILFORD        SUNNY     70  16  12 N12       30.19F
MOAB/CYNLANDS  SUNNY     75   2   6 MISG      30.13F
PRICE          SUNNY     71  10   9 SW7       30.19F
ST GEORGE      CLEAR     82  28  14 NW5       30.08F
KANAB          MOSUNNY   77  21  12 S7        30.18F

$$

REGIONAL REPORTS     COLORADO/ARIZONA

CITY           SKY/WX    TMP DP  RH WIND       PRES   REMARKS
CRAIG, CO      SUNNY     64  14  14 VRB7G17   30.22F
GRAND JUNCTION SUNNY     72   8   8 NW12G17   30.14F
RIFLE          SUNNY     71   8   8 CALM      30.16F
MONTROSE       SUNNY     72   5   7 NW7       30.18F
CORTEZ         SUNNY     75  11   8 W12G18    30.18F
PAGE, AZ       SUNNY     79  19  10 NE9       30.12F
GRAND CANYON   PTSUNNY   71  18  13 NE12      30.25F
KINGMAN        MOSUNNY   82  21  10 SW13      30.09F
FLAGSTAFF      PTSUNNY   67  14  13 S12       30.27F

$$

REGIONAL REPORTS    NEVADA/IDAHO/WYOMING

CITY           SKY/WX    TMP DP  RH WIND       PRES   REMARKS
LAS VEGAS, NV  MOSUNNY   87  18   8 VRB3      29.98F
ELY            MOSUNNY   72  15  11 SE10G18   30.20F
ELKO           SUNNY     68   2   7 S3        30.20F
POCATELLO, ID  SUNNY     63  20  19 W16G24    30.24F
BURLEY         SUNNY     62  18  18 W8        30.22F
EVANSTON, WY   SUNNY     60  14  16 SW16G23   30.27F
ROCK SPRINGS   MOSUNNY   60   8  12 SW17G24   30.23F
KEMMERER       SUNNY     55  10  16 W16G22    30.28S

$$


USA.gov is the U.S. government's official web portal to all federal, state and local government web resources and services.